Temp_Advection
nan nan nan nan nan nan nan nan nan nan nan nan nan nan nan nan nan nan nan nan nan nan nan nan nan nan nan nan nan nan nan nan nan nan nan nan nan nan nan nan nan nan
nan -1 -0 -0 -0 -0 -0 -0 0 -0 -0 -0 -0 -0 -0 -0 -0 -0 -0 -0 -0 0 0 -0 -0 -0 -0 -0 -0 -0 -0 -0 -0 0 -0 -0 -0 -0 -0 -0 -0 nan
nan -1 -1 -1 -0 -0 -0 0 0 0 0 0 -0 -0 -0 -0 -0 -0 -0 -0 -0 0 -0 -0 -0 -0 -0 -0 -0 -0 -0 -0 -0 0 0 0 -0 -0 -0 -0 -0 nan
nan -1 -1 -1 -0 -0 0 0 0 -0 -0 -0 -0 -0 -0 -0 -0 -0 -0 -0 -0 0 -0 -0 -0 -0 -0 -0 -0 -0 -0 -0 -0 -0 -0 0 -0 -0 -0 -0 -0 nan
nan -1 -0 -0 -0 0 0 -0 -0 -0 -0 -0 0 0 -0 -0 -0 -0 -0 -0 -0 -0 -0 -0 -0 -0 -0 -0 -0 -0 -0 0 0 -0 -0 0 -0 -0 -0 -0 -0 nan
nan -0 -0 -0 -0 -0 -0 -0 -0 -0 -0 0 0 0 0 -0 -0 -0 -0 -0 -0 -0 -0 -0 0 0 0 -0 -0 -0 -0 0 0 -0 -0 -0 0 -0 -0 -0 -0 nan
nan -0 -0 0 0 -0 -0 -0 0 -0 -0 0 0 0 0 -0 -0 -0 -0 -0 -0 -0 -0 -0 0 0 0 0 0 -0 -0 -0 0 -0 -0 -0 0 -0 -0 -0 -0 nan
nan 0 0 0 -0 -0 -0 -0 -0 -0 0 0 0 -0 -0 -0 -0 -0 -0 -0 -0 -0 -0 -0 0 0 0 0 0 0 0 0 -0 -0 -0 -0 -0 0 0 0 -0 nan
nan 0 0 0 -0 -0 -0 -0 -0 -0 0 0 -0 0 0 -0 0 0 0 0 -0 -0 -0 -0 -0 0 0 0 0 0 0 0 0 0 -0 -0 -0 0 0 0 -0 nan
nan 0 0 0 -0 -1 -1 -0 -0 0 0 0 0 0 -0 0 0 1 0 0 -0 -0 -0 -0 -0 0 0 0 0 0 0 0 0 0 0 -0 -0 0 0 0 -0 nan
nan 0 0 0 0 -0 -0 -0 0 0 0 0 0 0 -0 0 1 1 0 -0 -0 -0 -0 -0 -0 -0 -0 -0 0 0 0 0 0 -0 0 0 0 0 0 -0 -0 nan
nan 0 0 0 0 0 0 0 0 0 -0 -0 0 0 0 0 1 0 0 -0 -0 0 -0 -0 -0 -0 -0 -0 -0 0 0 0 0 -0 -0 0 0 0 0 -0 -0 nan
nan 0 0 0 0 0 0 0 0 0 -0 -0 -0 -0 -0 0 0 0 0 0 0 0 -0 -0 -0 -0 -0 -0 -0 -0 -0 0 0 0 -0 -0 0 0 0 0 -0 nan
nan 0 0 0 0 0 0 0 0 0 -0 -0 -0 -0 -1 -0 -0 0 0 0 0 0 0 0 -0 -0 -0 -0 -1 -0 -0 -0 0 0 0 0 -0 -0 0 0 0 nan
nan 0 0 0 0 0 0 0 0 0 0 0 -0 -1 -1 -0 -0 0 0 0 0 0 0 0 -0 -1 -0 -0 -0 -1 -0 -0 0 0 0 0 0 -0 -0 -0 0 nan
nan 0 0 0 0 -0 0 0 0 0 0 0 -0 -0 -0 -0 -0 -0 -0 -0 -0 0 0 -0 -0 -1 -1 -0 -0 -0 -0 -0 -0 0 0 0 0 0 -0 -0 -0 nan
nan 0 -0 -0 -0 -0 0 0 0 0 0 0 0 0 0 0 0 -0 -1 -0 -0 -0 -0 -1 -1 -0 -0 -0 -0 0 0 -0 -0 0 0 0 0 0 -0 -0 -0 nan
nan -0 -0 -1 -1 -1 -0 0 0 0 0 0 0 0 0 0 0 -0 -0 -0 -0 -1 -1 -1 -1 -1 -0 0 0 0 0 0 -0 -0 -0 0 0 0 0 0 -0 nan
nan -0 0 1 0 -1 -1 -0 0 0 0 0 -0 0 0 -0 -0 0 0 0 0 -0 -1 -2 -2 -1 -0 0 0 0 1 1 0 -0 -0 -0 -0 0 0 0 0 nan
nan -0 0 1 2 1 1 0 -1 -1 0 1 1 1 0 -0 -0 0 0 0 0 -0 -1 -1 -2 -2 -0 0 0 0 1 1 1 0 -0 -0 -0 -0 0 0 0 nan
nan 1 0 0 1 1 2 1 -1 -1 -1 0 1 0 0 0 0 0 0 0 0 0 0 -1 -3 -2 -1 -0 0 0 1 2 1 1 -0 -1 -1 -0 -0 0 0 nan
nan 0 0 0 0 0 0 -0 0 -0 -0 -0 -0 -0 -0 0 0 0 -0 0 0 1 1 -1 -3 -2 -1 -1 -0 1 1 2 1 1 0 -1 -1 -0 -0 0 0 nan
nan -0 -0 0 0 -0 -1 -1 -0 0 1 1 -0 -1 -1 -1 -0 0 0 1 1 1 1 -1 -2 -1 -1 -1 -1 1 1 1 1 1 1 -0 -1 -0 -0 -0 0 nan
nan 0 -0 -0 -0 -1 -1 -1 -0 -0 0 1 0 -1 -2 -1 -0 0 0 0 0 0 0 0 -1 -0 -0 -1 -1 0 1 1 1 1 1 0 -0 -0 -0 -0 -0 nan
nan 0 1 0 -1 -1 -1 -1 -0 -0 -0 0 0 -0 -1 -1 -0 0 -0 -0 -0 -1 0 0 0 0 -0 -1 -1 0 0 0 1 1 1 -0 -0 -0 -0 0 -0 nan
nan nan nan nan nan nan nan nan nan nan nan nan nan nan nan nan nan nan nan nan nan nan nan nan nan nan nan nan nan nan nan nan nan nan nan nan nan nan nan nan nan nan
Wind_Speed
30 28 26 25 24 24 23 23 22 22 22 20 19 17 16 15 14 14 14 14 13 13 12 12 11 10 10 10 10 10 9 9 8 7 8 8 8 9 10 10 10 9
31 30 28 26 25 24 24 24 23 22 22 21 19 17 16 15 14 14 14 14 14 13 13 13 12 12 11 10 10 10 10 10 8 8 8 7 7 7 9 10 11 11
31 31 30 27 26 25 24 24 24 23 22 22 20 18 16 15 14 14 14 14 14 14 13 13 13 12 12 11 11 11 11 11 10 9 9 8 7 7 8 9 11 12
31 31 30 29 27 25 24 25 26 25 23 23 21 19 18 17 15 14 13 13 14 13 13 13 13 12 12 12 12 11 12 12 11 11 11 10 9 9 8 9 10 11
31 31 31 30 28 27 26 26 26 26 25 24 23 21 20 19 18 16 14 13 13 12 13 13 13 13 13 13 13 12 12 12 12 12 12 11 11 10 10 10 10 10
31 31 31 31 30 29 29 28 27 27 26 25 24 23 22 21 20 19 17 15 13 12 12 12 12 13 13 13 13 13 12 12 12 12 13 12 11 11 11 11 10 10
32 32 31 31 31 31 31 30 28 28 27 26 25 24 23 23 22 21 20 17 16 14 13 13 12 12 13 14 14 14 13 13 12 12 12 12 11 11 11 11 11 10
33 33 32 32 32 32 33 32 31 30 29 29 28 26 25 24 23 22 21 20 18 16 15 14 14 13 13 14 15 15 15 14 14 13 13 13 13 12 12 12 12 11
35 34 33 33 33 33 33 34 33 32 31 31 30 28 27 26 25 24 23 22 21 19 18 17 16 15 15 15 15 15 16 16 15 15 15 14 14 13 13 13 13 13
37 36 35 34 34 34 34 34 34 34 34 33 32 32 31 29 28 27 26 25 24 23 22 21 19 17 17 16 16 16 16 17 17 17 17 16 15 14 13 14 14 14
40 38 37 36 35 34 34 34 35 35 35 35 34 34 34 32 31 30 29 28 28 27 26 25 23 21 20 18 18 17 17 17 18 18 18 18 17 16 15 15 15 14
41 40 39 38 36 35 34 34 34 35 36 36 36 36 35 34 34 33 32 31 31 30 29 28 27 25 24 22 20 19 19 18 19 19 20 20 19 18 18 17 16 16
42 41 40 39 37 35 34 34 34 35 35 36 37 37 37 37 36 35 35 34 33 32 32 31 30 29 28 26 23 22 21 20 19 20 20 21 21 20 20 19 19 18
42 42 41 39 38 36 35 34 33 33 33 34 35 37 38 38 38 37 37 36 35 35 34 33 33 32 31 29 27 24 23 22 21 21 21 22 23 23 22 21 21 20
42 41 40 39 38 37 36 35 34 33 32 32 33 35 36 37 38 38 39 39 38 38 37 36 36 35 32 30 29 27 25 24 24 23 22 22 23 24 24 24 23 22
41 41 40 39 39 39 37 36 35 34 34 33 32 32 33 34 36 37 38 39 39 39 39 39 38 37 34 32 31 29 28 27 26 25 24 24 24 24 25 25 24 24
41 41 41 40 39 38 38 37 36 35 35 34 34 33 32 32 33 34 35 37 37 38 38 38 38 37 36 34 33 32 31 30 29 28 26 26 25 25 25 26 26 25
39 39 41 42 41 38 36 35 35 36 35 35 34 33 32 32 32 32 32 33 34 35 36 37 37 37 36 36 35 34 33 32 31 29 28 27 27 26 26 26 26 26
38 36 37 41 44 43 39 34 33 34 34 34 33 32 32 32 32 31 31 31 32 32 33 34 35 35 35 35 35 34 33 32 31 30 29 28 28 27 27 27 27 27
39 37 36 37 40 43 44 41 38 34 32 32 32 32 33 33 32 32 31 31 31 32 32 33 34 35 35 35 34 33 32 32 31 31 30 29 28 28 28 27 27 28
40 40 39 38 39 41 43 44 43 40 35 32 31 32 32 33 33 34 33 32 31 31 32 33 33 34 34 34 34 32 32 31 31 31 31 30 29 28 28 28 27 27
38 41 42 42 42 42 43 43 43 43 40 37 34 32 31 31 33 34 34 34 33 32 33 33 32 32 32 33 32 32 31 31 31 31 31 31 30 29 28 28 28 28
36 40 42 42 43 44 44 42 41 41 41 40 38 36 33 32 31 32 33 33 34 34 34 33 31 30 31 31 31 31 31 31 31 32 32 32 30 29 28 29 28 28
36 39 39 40 41 43 44 43 41 40 40 40 40 39 36 33 32 32 32 33 33 33 33 33 31 29 29 30 31 31 31 32 32 32 32 32 31 30 29 29 29 29
32 34 35 35 37 39 40 41 41 39 38 38 39 40 39 37 36 35 35 34 34 33 33 33 32 29 28 29 30 31 32 32 32 33 33 33 32 31 30 30 29 29
24 27 29 30 32 34 36 38 38 38 37 37 38 39 39 40 39 38 38 36 35 35 34 34 33 30 29 28 29 30 32 33 33 34 34 33 32 32 31 31 30 29
Wind_Direction
226 226 227 228 230 230 228 225 222 221 221 221 220 220 219 220 222 224 226 227 228 226 225 226 226 223 220 219 221 222 226 228 226 228 232 235 236 231 228 232 234 233
227 227 228 229 230 231 230 228 227 226 225 224 225 224 223 222 223 225 227 228 230 230 228 227 227 225 224 225 225 226 230 230 226 229 236 239 240 236 231 234 236 237
228 228 228 228 229 230 230 229 230 229 227 227 227 226 226 225 226 228 229 230 232 233 233 231 229 228 228 231 232 232 235 237 232 230 235 239 242 246 244 240 241 244
228 228 228 228 229 230 231 231 231 231 229 227 226 226 227 228 229 229 229 231 232 233 235 236 235 233 233 236 239 239 240 242 240 237 237 238 241 247 250 249 250 250
231 229 228 228 229 230 232 232 232 232 231 228 227 228 229 230 231 229 228 228 229 232 235 238 240 240 239 240 243 244 245 245 244 243 243 241 241 246 248 251 253 254
234 232 230 229 229 230 232 232 233 234 234 232 231 231 232 233 234 232 229 227 227 230 234 239 244 247 248 248 248 248 249 248 247 246 246 243 242 245 247 249 250 252
236 235 234 232 231 231 232 233 233 234 235 235 235 235 235 235 235 234 232 230 230 232 236 241 246 250 254 255 255 254 253 252 251 248 246 244 242 243 246 249 250 250
238 238 237 236 234 233 233 234 234 235 235 236 238 239 239 238 236 235 235 235 236 239 244 246 248 251 254 257 259 259 258 257 255 253 250 247 245 244 245 248 251 251
239 239 239 239 237 236 235 235 236 237 237 238 239 240 241 241 239 239 239 240 242 247 251 253 254 254 255 257 261 262 262 260 259 258 257 253 251 249 248 248 250 250
239 240 240 241 240 239 237 237 237 238 239 240 241 242 242 242 242 243 244 244 247 250 254 258 259 260 259 259 260 263 264 263 261 259 259 259 257 256 255 254 254 253
240 240 241 242 243 242 240 239 239 239 241 242 243 244 245 245 245 246 246 247 249 252 256 260 263 265 265 263 262 264 266 265 263 261 260 260 261 259 259 260 260 259
240 241 242 243 244 245 245 244 242 242 242 243 245 246 248 249 248 249 249 250 252 254 257 260 263 266 267 267 265 264 265 266 265 263 260 260 260 261 260 260 260 261
241 242 244 245 246 248 249 249 248 247 246 246 247 248 249 251 252 252 253 253 254 256 258 260 263 265 267 267 266 264 265 266 267 266 263 260 259 260 260 260 260 260
242 244 245 246 248 249 250 251 251 251 251 250 250 249 250 251 253 254 256 257 258 258 259 261 262 263 264 264 263 262 263 264 267 268 267 264 261 259 258 259 259 258
243 244 245 247 248 249 250 251 251 251 251 251 251 251 251 251 252 254 256 257 259 260 262 262 263 263 263 262 261 260 260 262 265 268 269 267 265 261 258 258 257 257
243 244 246 247 247 249 250 251 251 251 251 251 251 251 251 251 252 253 254 255 257 260 261 263 264 264 263 261 260 260 261 262 263 265 267 267 265 263 260 258 257 257
243 245 245 246 248 249 250 251 252 252 252 252 253 253 253 253 253 253 253 254 255 257 259 261 262 263 263 262 261 261 262 263 263 264 264 264 263 262 260 257 256 256
242 245 247 248 248 248 248 250 251 252 252 253 253 253 254 254 254 254 254 254 255 256 257 258 259 260 261 262 262 261 262 263 263 263 263 262 261 259 258 257 255 254
241 243 247 249 249 248 248 247 248 248 250 251 252 253 254 254 255 255 255 255 255 255 255 256 257 257 258 260 260 261 261 262 263 262 261 261 260 258 257 255 254 253
243 243 245 247 249 250 249 247 246 246 247 248 249 251 253 254 254 254 254 254 254 254 254 254 254 254 255 257 258 259 260 261 261 262 261 260 259 257 256 254 253 253
243 245 244 245 247 248 248 248 248 248 249 248 248 249 251 254 255 256 255 255 255 255 255 254 252 252 253 254 256 257 258 259 260 261 261 260 258 256 255 254 253 252
240 242 244 246 246 245 246 248 250 250 250 250 250 250 252 254 256 258 258 257 257 256 257 257 253 250 250 251 253 254 255 257 258 259 260 259 258 256 255 254 254 253
244 244 245 246 246 245 246 248 249 249 250 251 252 252 253 254 256 258 259 259 259 259 258 258 256 252 249 249 249 250 252 253 255 256 257 258 257 256 256 255 254 254
247 248 249 250 248 246 246 247 247 247 249 251 252 254 255 256 258 259 260 260 261 261 260 260 259 256 253 250 247 247 249 250 252 253 255 257 257 257 257 256 255 254
246 246 248 250 250 249 248 248 248 248 249 250 253 255 256 258 259 259 261 261 262 262 262 261 260 259 256 252 248 246 247 248 250 251 253 254 256 256 256 256 255 254
243 245 245 245 246 247 248 249 249 249 249 250 252 255 256 258 259 259 261 262 261 261 261 260 259 258 256 253 249 246 245 246 248 250 251 252 253 255 256 256 256 255
Height
1573 1575 1577 1579 1581 1583 1584 1587 1589 1590 1591 1592 1593 1595 1597 1598 1600 1601 1602 1603 1604 1605 1606 1607 1608 1608 1609 1610 1611 1611 1612 1613 1613 1614 1615 1615 1616 1617 1618 1619 1620 1621
1572 1574 1576 1578 1579 1581 1583 1585 1587 1589 1590 1592 1593 1595 1597 1598 1599 1600 1601 1603 1603 1604 1605 1606 1607 1608 1609 1609 1610 1611 1611 1612 1612 1613 1614 1615 1615 1616 1617 1618 1619 1620
1570 1572 1574 1576 1578 1580 1582 1583 1586 1587 1589 1591 1592 1594 1596 1597 1599 1600 1601 1602 1603 1604 1605 1606 1606 1607 1608 1609 1609 1610 1611 1611 1612 1612 1613 1614 1614 1615 1616 1617 1618 1619
1568 1570 1572 1574 1577 1579 1581 1582 1584 1586 1588 1589 1591 1593 1595 1596 1598 1599 1600 1601 1602 1603 1604 1605 1606 1606 1607 1608 1608 1609 1610 1611 1611 1612 1612 1613 1613 1614 1615 1616 1617 1617
1566 1568 1570 1573 1575 1577 1579 1580 1582 1584 1586 1588 1590 1592 1593 1595 1597 1598 1599 1600 1601 1602 1603 1604 1604 1605 1606 1607 1607 1608 1609 1609 1610 1611 1611 1612 1612 1613 1614 1615 1615 1616
1564 1566 1568 1570 1573 1575 1577 1578 1580 1582 1584 1586 1588 1590 1592 1593 1595 1597 1598 1599 1600 1601 1602 1603 1603 1604 1605 1606 1606 1607 1608 1608 1609 1610 1610 1611 1611 1612 1613 1613 1614 1615
1561 1564 1566 1568 1570 1572 1574 1576 1578 1580 1582 1584 1586 1588 1590 1592 1593 1595 1597 1598 1599 1600 1601 1602 1602 1603 1604 1604 1605 1606 1607 1607 1608 1608 1609 1610 1610 1611 1612 1612 1613 1613
1559 1561 1564 1566 1568 1570 1572 1574 1576 1578 1580 1582 1584 1586 1588 1590 1591 1593 1595 1596 1598 1598 1599 1600 1601 1602 1603 1603 1603 1604 1605 1606 1607 1607 1608 1608 1609 1610 1610 1611 1611 1612
1557 1559 1561 1563 1565 1567 1569 1571 1573 1575 1577 1579 1581 1583 1585 1587 1589 1591 1592 1594 1595 1597 1598 1598 1599 1600 1601 1602 1602 1603 1603 1604 1605 1606 1606 1607 1607 1608 1609 1610 1610 1611
1554 1556 1558 1560 1562 1564 1566 1568 1570 1572 1574 1576 1578 1580 1582 1584 1586 1588 1590 1591 1593 1594 1595 1596 1597 1598 1599 1600 1601 1601 1602 1602 1603 1604 1604 1605 1606 1606 1607 1608 1608 1609
1551 1553 1555 1556 1558 1560 1563 1565 1567 1569 1571 1573 1575 1577 1579 1581 1583 1584 1586 1588 1589 1591 1593 1594 1595 1596 1597 1598 1599 1600 1600 1601 1601 1602 1603 1603 1604 1604 1605 1606 1606 1607
1547 1550 1551 1553 1556 1558 1560 1563 1565 1566 1568 1570 1572 1574 1576 1578 1580 1581 1583 1585 1586 1588 1590 1591 1593 1594 1595 1596 1597 1598 1598 1599 1599 1600 1600 1601 1602 1602 1603 1604 1604 1605
1544 1546 1549 1551 1553 1556 1558 1560 1562 1564 1565 1567 1569 1571 1572 1574 1576 1578 1580 1581 1583 1585 1586 1588 1589 1591 1592 1593 1594 1595 1596 1597 1597 1598 1598 1599 1600 1600 1601 1602 1602 1603
1541 1544 1546 1549 1551 1553 1555 1557 1558 1560 1562 1564 1565 1567 1568 1570 1572 1574 1576 1578 1580 1581 1583 1584 1586 1587 1589 1590 1591 1593 1594 1594 1595 1596 1596 1597 1597 1598 1598 1599 1600 1600
1538 1541 1543 1546 1548 1549 1551 1553 1555 1556 1558 1559 1561 1562 1564 1566 1568 1570 1572 1574 1576 1577 1579 1581 1582 1583 1585 1586 1588 1589 1590 1591 1592 1593 1594 1594 1595 1595 1596 1596 1597 1597
1535 1537 1539 1542 1543 1545 1547 1549 1550 1552 1553 1555 1556 1558 1560 1562 1564 1566 1567 1569 1571 1573 1575 1576 1577 1579 1581 1583 1585 1586 1587 1588 1589 1590 1591 1591 1592 1592 1592 1593 1593 1594
1532 1534 1535 1537 1539 1540 1542 1544 1546 1548 1549 1551 1552 1554 1556 1557 1559 1561 1562 1564 1566 1568 1570 1571 1573 1575 1577 1579 1581 1582 1583 1584 1585 1586 1587 1588 1588 1589 1589 1590 1590 1591
1527 1529 1531 1532 1534 1535 1537 1539 1541 1543 1545 1546 1548 1550 1552 1553 1555 1556 1558 1560 1561 1563 1565 1566 1568 1570 1572 1574 1576 1578 1579 1580 1581 1582 1583 1584 1584 1585 1585 1586 1587 1587
1522 1523 1525 1527 1530 1531 1533 1534 1536 1537 1539 1541 1543 1545 1548 1549 1551 1552 1554 1555 1557 1558 1559 1561 1563 1565 1567 1569 1571 1573 1575 1576 1577 1578 1578 1579 1580 1581 1581 1582 1583 1584
1521 1520 1521 1523 1525 1528 1530 1531 1532 1533 1534 1536 1538 1540 1543 1544 1546 1548 1549 1551 1552 1553 1555 1556 1558 1560 1562 1564 1566 1568 1570 1571 1572 1573 1574 1575 1575 1576 1577 1578 1579 1580
1521 1520 1520 1520 1522 1524 1527 1529 1530 1531 1532 1533 1534 1535 1537 1540 1542 1544 1545 1547 1548 1549 1550 1551 1552 1555 1557 1559 1561 1563 1565 1566 1567 1568 1569 1570 1571 1572 1572 1574 1575 1576
1519 1519 1519 1520 1520 1522 1523 1524 1526 1528 1529 1531 1531 1532 1533 1535 1537 1539 1541 1542 1544 1545 1546 1546 1547 1550 1552 1554 1556 1558 1560 1561 1562 1563 1564 1565 1566 1567 1568 1569 1571 1572
1516 1517 1517 1518 1518 1519 1519 1520 1521 1523 1525 1528 1529 1530 1530 1531 1533 1534 1536 1537 1539 1540 1541 1542 1542 1544 1546 1548 1551 1553 1554 1555 1557 1558 1559 1560 1561 1563 1564 1565 1566 1567
1512 1513 1514 1514 1515 1515 1516 1516 1517 1519 1521 1523 1525 1526 1527 1528 1529 1530 1532 1533 1534 1535 1537 1537 1538 1539 1541 1543 1545 1547 1549 1550 1551 1553 1553 1555 1556 1558 1559 1560 1562 1563
1508 1508 1509 1510 1511 1512 1512 1513 1514 1516 1517 1519 1521 1522 1523 1525 1526 1527 1527 1528 1529 1531 1532 1533 1533 1535 1536 1538 1539 1541 1543 1545 1546 1547 1548 1550 1552 1553 1555 1556 1557 1558
1504 1504 1505 1505 1506 1507 1509 1510 1511 1512 1514 1515 1517 1518 1519 1521 1522 1522 1523 1524 1525 1526 1527 1528 1529 1530 1531 1532 1534 1536 1537 1539 1541 1542 1543 1545 1547 1548 1550 1551 1552 1554